Погода в Белоусовке

Украина / Черкасская область     49°56′28″N   32°21′26″E
темп.,
°C
ветер,
м/с
пор.,
м/с
влажн.,
%
обл.,
%
осадки,
мм/ч
давл.,
гПа
погр.,
м
4 июля, пн
пн400:00+17всв227237 0.0 101811
03:00+16ссв00800 0.0 101811
06:00+17с12795 0.0 101814
09:00+24ссв11581 0.0 1018519
12:00+28юв11390 0.0 10171782
15:00+30ююв1132100 0.0 10162435
18:00+29ю223323 0.0 10152350
21:00+23ююв334213 0.0 101519
5 июля, вт
вт500:00+20ююв12495 0.0 101611
03:00+19вюв22540 0.0 101611
06:00+19ююв225739 0.0 101620
09:00+25юв224510 0.0 1016322
12:00+30юв22325 0.0 10162340
15:00+32юв3229100 0.0 10142701
18:00+31юв433228 0.0 10141925
21:00+24юв44483 0.0 101453
6 июля, ср
ср600:00+21юв22520 0.0 101519
03:00+20юв33605 0.0 101529
06:00+20юв36670 0.0 1015113
09:00+28юв58442 0.0 1014527
12:00+32ююв77302 0.0 10131690
15:00+34ююв552625 0.0 10112400
18:00+26ссв454790 0.1 101182
21:00+26вюв4847100 0.1 1011143
7 июля, чт
чт700:00+21с8138299 0.4 1013332
03:00+19с4109276 0.4 1013277
06:00+17ссз699536 0.0 1014287
09:00+22ссз567046 0.0 1015710
12:00+26ссз435752 0.1 1015987
15:00+29с324799 0.1 10141445
18:00+28ссв324850 0.0 10131323
21:00+21с2482100 3.7 101394
8 июля, пт
пт800:00+19ссв4894100 5.0 1015234
03:00+18с369773 5.1 1014157
06:00+18с489618 1.1 1015251
09:00+19ссв4890100 1.4 1014326
12:00+23с5669100 0.0 1015658
15:00+28ссв5544100 0.0 10141504
18:00+26ссв6653100 0.0 1014834
21:00+21ссв5117661 0.0 1015356